Schneifelwetter: Wetterstation Hallschlag, 537 m . NN
Wetterdaten: Freitag, 01.04.2011
Datum Zeit Temp. A. Feuchte A. Luftdruck Regen Wind Richtung Richtung Sonnenschein Helligkeit T Regen Taupunkt Windchill
01.04.2011 00:01 10,1 C 97 % 1018 hPa 0,0 l/m 38,6 km/h (5 Bft) W22.5 260 0 min 0 lux 0,00 min 9,6 C -0,8 C
01.04.2011 00:16 10,1 C 97 % 1018 hPa 0,0 l/m 35,2 km/h (5 Bft) W-SW22.5 255 0 min 0 lux 0,00 min 9,6 C -0,2 C
01.04.2011 00:31 10,1 C 97 % 1018 hPa 0,0 l/m 43,4 km/h (6 Bft) W-SW45 255 0 min 0 lux 0,00 min 9,6 C -1,4 C
01.04.2011 00:47 10,1 C 97 % 1018 hPa 0,0 l/m 35,6 km/h (5 Bft) W-SW22.5 255 0 min 0 lux 0,00 min 9,6 C -0,3 C
01.04.2011 01:02 10,2 C 97 % 1018 hPa 0,0 l/m 41,5 km/h (6 Bft) W45 260 0 min 0 lux 0,00 min 9,7 C -1,0 C
01.04.2011 01:17 10,1 C 96 % 1018 hPa 0,0 l/m 38,8 km/h (5 Bft) W-SW45 250 0 min 0 lux 0,00 min 9,5 C -0,8 C
01.04.2011 01:32 10,0 C 96 % 1018 hPa 0,0 l/m 28,8 km/h (4 Bft) W-SW45 255 0 min 0 lux 0,00 min 9,4 C 0,9 C
01.04.2011 01:47 10,0 C 96 % 1018 hPa 0,0 l/m 31,8 km/h (5 Bft) W-SW45 250 0 min 0 lux 0,00 min 9,4 C 0,3 C
01.04.2011 02:02 10,0 C 96 % 1018 hPa 0,0 l/m 33,6 km/h (5 Bft) W-SW22.5 255 0 min 0 lux 0,00 min 9,4 C -0,1 C
01.04.2011 02:17 9,9 C 95 % 1018 hPa 0,0 l/m 42,6 km/h (6 Bft) W-SW22.5 255 0 min 0 lux 0,00 min 9,1 C -1,6 C
01.04.2011 02:32 9,9 C 95 % 1019 hPa 0,0 l/m 32,8 km/h (5 Bft) W-SW45 255 0 min 0 lux 0,00 min 9,1 C -0,1 C
01.04.2011 02:47 9,8 C 95 % 1019 hPa 0,0 l/m 26,4 km/h (4 Bft) W-SW45 245 0 min 0 lux 0,00 min 9,0 C 1,2 C
01.04.2011 03:02 9,8 C 95 % 1019 hPa 0,0 l/m 30,0 km/h (5 Bft) W-SW22.5 255 0 min 0 lux 0,00 min 9,0 C 0,4 C
01.04.2011 03:17 9,7 C 95 % 1019 hPa 0,0 l/m 29,6 km/h (5 Bft) W45 260 0 min 0 lux 0,00 min 8,9 C 0,3 C
01.04.2011 03:32 9,6 C 94 % 1019 hPa 0,0 l/m 34,4 km/h (5 Bft) W45 260 0 min 0 lux 0,00 min 8,7 C -0,8 C
01.04.2011 03:47 9,6 C 94 % 1019 hPa 0,0 l/m 35,9 km/h (5 Bft) W45 260 0 min 0 lux 0,00 min 8,7 C -1,0 C
01.04.2011 04:02 9,5 C 94 % 1019 hPa 0,0 l/m 30,5 km/h (5 Bft) W45 260 0 min 0 lux 0,00 min 8,6 C -0,2 C
01.04.2011 04:17 9,5 C 93 % 1020 hPa 0,0 l/m 32,1 km/h (5 Bft) W22.5 260 0 min 0 lux 0,00 min 8,4 C -0,5 C
01.04.2011 04:32 9,4 C 93 % 1020 hPa 0,0 l/m 23,7 km/h (4 Bft) W-SW22.5 255 0 min 0 lux 0,00 min 8,3 C 1,4 C
01.04.2011 04:47 9,2 C 93 % 1020 hPa 0,0 l/m 25,1 km/h (4 Bft) W-SW45 250 0 min 0 lux 0,00 min 8,1 C 0,7 C
01.04.2011 05:02 9,1 C 94 % 1019 hPa 0,0 l/m 23,0 km/h (4 Bft) W-SW45 245 0 min 0 lux 0,00 min 8,2 C 1,2 C
01.04.2011 05:17 9,0 C 94 % 1019 hPa 0,0 l/m 27,8 km/h (4 Bft) W-SW45 250 0 min 0 lux 0,00 min 8,1 C -0,2 C
01.04.2011 05:32 9,1 C 94 % 1020 hPa 0,0 l/m 25,8 km/h (4 Bft) W-SW22.5 250 0 min 0 lux 0,00 min 8,2 C 0,4 C
01.04.2011 05:47 9,2 C 94 % 1020 hPa 0,0 l/m 31,7 km/h (5 Bft) W-SW22.5 250 0 min 0 lux 0,00 min 8,3 C -0,8 C
01.04.2011 06:02 9,2 C 94 % 1020 hPa 0,0 l/m 21,0 km/h (4 Bft) W-SW22.5 250 0 min 0 lux 0,00 min 8,3 C 1,9 C
01.04.2011 06:17 9,2 C 94 % 1020 hPa 0,0 l/m 19,3 km/h (3 Bft) W-SW22.5 245 0 min 0 lux 0,00 min 8,3 C 2,5 C
01.04.2011 06:32 9,2 C 94 % 1020 hPa 0,0 l/m 21,5 km/h (4 Bft) W-SW22.5 255 0 min 0 lux 0,00 min 8,3 C 1,8 C
01.04.2011 06:47 9,2 C 95 % 1020 hPa 0,0 l/m 21,4 km/h (4 Bft) W-SW22.5 250 0 min 0 lux 0,00 min 8,4 C 1,8 C
01.04.2011 07:02 9,2 C 95 % 1020 hPa 0,0 l/m 18,5 km/h (3 Bft) W-SW22.5 250 0 min 44 lux 0,00 min 8,4 C 2,8 C
01.04.2011 07:17 9,0 C 95 % 1020 hPa 0,0 l/m 22,7 km/h (4 Bft) W-SW22.5 255 0 min 379 lux 0,00 min 8,2 C 1,1 C
01.04.2011 07:32 8,9 C 95 % 1021 hPa 0,0 l/m 18,1 km/h (3 Bft) W-SW22.5 250 0 min 1,61 klux 0,00 min 8,1 C 2,5 C
01.04.2011 07:47 9,0 C 95 % 1021 hPa 0,0 l/m 18,5 km/h (3 Bft) W-SW 250 0 min 1,62 klux 0,00 min 8,2 C 2,5 C
01.04.2011 08:02 9,2 C 95 % 1021 hPa 0,0 l/m 17,2 km/h (3 Bft) W-SW22.5 250 0 min 4,76 klux 0,00 min 8,4 C 3,3 C
01.04.2011 08:16 9,6 C 96 % 1021 hPa 0,0 l/m 20,5 km/h (4 Bft) SW22.5 235 0 min 14,6 klux 0,00 min 9,0 C 2,6 C
01.04.2011 08:32 9,9 C 95 % 1021 hPa 0,0 l/m 22,5 km/h (4 Bft) W-SW22.5 255 0 min 19,5 klux 0,00 min 9,1 C 2,4 C
01.04.2011 08:47 10,0 C 95 % 1021 hPa 0,0 l/m 22,9 km/h (4 Bft) W-SW67.5 255 0 min 7,17 klux 0,00 min 9,2 C 2,4 C
01.04.2011 09:02 10,1 C 95 % 1021 hPa 0,0 l/m 22,5 km/h (4 Bft) W-SW45 255 0 min 9,5 klux 0,00 min 9,3 C 2,7 C
01.04.2011 09:17 10,4 C 94 % 1021 hPa 0,0 l/m 19,5 km/h (3 Bft) W-SW45 250 0 min 14,7 klux 0,00 min 9,5 C 4,0 C
01.04.2011 09:32 10,8 C 94 % 1021 hPa 0,0 l/m 21,6 km/h (4 Bft) W22.5 260 0 min 16,3 klux 0,00 min 9,9 C 3,8 C
01.04.2011 09:46 10,8 C 93 % 1021 hPa 0,0 l/m 25,0 km/h (4 Bft) SW22.5 235 0 min 13,6 klux 0,00 min 9,7 C 2,9 C
01.04.2011 10:01 11,1 C 94 % 1021 hPa 0,0 l/m 18,6 km/h (3 Bft) W-SW22.5 240 0 min 18,8 klux 0,00 min 10,2 C 5,2 C
01.04.2011 10:17 11,2 C 93 % 1021 hPa 0,0 l/m 24,9 km/h (4 Bft) W-SW22.5 255 0 min 15,0 klux 0,00 min 10,1 C 3,5 C
01.04.2011 10:32 11,2 C 93 % 1021 hPa 0,0 l/m 27,3 km/h (4 Bft) W-SW45 240 0 min 14,8 klux 0,00 min 10,1 C 2,9 C
01.04.2011 10:47 11,5 C 94 % 1021 hPa 0,0 l/m 24,0 km/h (4 Bft) W-SW22.5 255 0 min 25,9 klux 0,00 min 10,6 C 4,1 C
01.04.2011 11:02 11,4 C 93 % 1022 hPa 0,3 l/m 22,3 km/h (4 Bft) W-SW22.5 250 0 min 12,1 klux 15,00 min 10,3 C 4,4 C
01.04.2011 11:16 11,6 C 94 % 1021 hPa 0,0 l/m 26,4 km/h (4 Bft) W-SW45 250 0 min 19,5 klux 0,00 min 10,7 C 3,7 C
01.04.2011 11:31 11,6 C 94 % 1022 hPa 0,0 l/m 24,1 km/h (4 Bft) W-SW45 250 0 min 14,3 klux 0,00 min 10,7 C 4,2 C
01.04.2011 11:47 11,3 C 93 % 1022 hPa 0,0 l/m 30,9 km/h (5 Bft) W-SW45 250 0 min 8,90 klux 0,00 min 10,2 C 2,3 C
01.04.2011 12:02 11,2 C 94 % 1022 hPa 0,0 l/m 26,5 km/h (4 Bft) W22.5 260 0 min 16,7 klux 0,00 min 10,3 C 3,1 C
01.04.2011 12:17 11,6 C 94 % 1022 hPa 0,0 l/m 32,6 km/h (5 Bft) W-SW22.5 255 0 min 28,8 klux 0,00 min 10,7 C 2,4 C
01.04.2011 12:32 11,8 C 94 % 1022 hPa 0,0 l/m 22,3 km/h (4 Bft) W-SW22.5 250 0 min 17,8 klux 0,00 min 10,9 C 5,0 C
01.04.2011 12:47 11,7 C 93 % 1022 hPa 0,0 l/m 21,3 km/h (4 Bft) W-SW22.5 250 0 min 11,5 klux 0,00 min 10,6 C 5,1 C
01.04.2011 13:01 11,8 C 93 % 1022 hPa 0,0 l/m 23,2 km/h (4 Bft) W-SW22.5 255 0 min 11,7 klux 0,00 min 10,7 C 4,7 C
01.04.2011 13:16 12,1 C 92 % 1021 hPa 0,0 l/m 24,6 km/h (4 Bft) W-SW22.5 255 0 min 28,4 klux 0,00 min 10,8 C 4,8 C
01.04.2011 13:32 13,3 C 92 % 1021 hPa 0,0 l/m 24,4 km/h (4 Bft) W-SW45 240 0 min 49,5 klux 0,00 min 12,0 C 6,4 C
01.04.2011 13:47 14,1 C 88 % 1021 hPa 0,0 l/m 31,2 km/h (5 Bft) W-SW22.5 255 0 min 36,4 klux 0,00 min 12,1 C 6,2 C
01.04.2011 14:02 13,6 C 85 % 1021 hPa 0,0 l/m 30,3 km/h (5 Bft) W-SW45 240 0 min 23,8 klux 0,00 min 11,1 C 5,7 C
01.04.2011 14:17 13,7 C 85 % 1021 hPa 0,0 l/m 28,0 km/h (4 Bft) W-SW22.5 255 0 min 30,8 klux 0,00 min 11,2 C 6,2 C
01.04.2011 14:32 13,7 C 84 % 1021 hPa 0,0 l/m 25,6 km/h (4 Bft) SW45 230 0 min 36,4 klux 0,00 min 11,0 C 6,7 C
01.04.2011 14:46 13,7 C 83 % 1021 hPa 0,0 l/m 28,5 km/h (4 Bft) W-SW45 250 0 min 30,3 klux 0,00 min 10,9 C 6,1 C
01.04.2011 15:02 13,7 C 85 % 1021 hPa 0,0 l/m 26,8 km/h (4 Bft) W-SW45 250 0 min 34,7 klux 0,00 min 11,2 C 6,5 C
01.04.2011 15:17 14,2 C 83 % 1021 hPa 0,0 l/m 30,9 km/h (5 Bft) W22.5 260 0 min 31,8 klux 0,00 min 11,4 C 6,4 C
01.04.2011 15:32 14,1 C 83 % 1021 hPa 0,0 l/m 25,3 km/h (4 Bft) W-SW22.5 250 0 min 18,3 klux 0,00 min 11,3 C 7,3 C
01.04.2011 15:47 13,6 C 84 % 1021 hPa 0,0 l/m 20,1 km/h (4 Bft) W-SW45 245 0 min 12,5 klux 0,00 min 10,9 C 7,9 C
01.04.2011 16:02 13,1 C 85 % 1021 hPa 0,0 l/m 20,6 km/h (4 Bft) SW22.5 215 0 min 12,3 klux 0,00 min 10,6 C 7,1 C
01.04.2011 16:16 12,8 C 86 % 1021 hPa 0,0 l/m 25,3 km/h (4 Bft) W-SW45 245 0 min 12,9 klux 0,00 min 10,5 C 5,6 C
01.04.2011 16:31 13,0 C 86 % 1021 hPa 0,0 l/m 24,5 km/h (4 Bft) W-SW22.5 255 0 min 17,8 klux 0,00 min 10,7 C 6,0 C
01.04.2011 16:47 13,1 C 86 % 1021 hPa 0,0 l/m 30,3 km/h (5 Bft) W-SW22.5 245 0 min 21,9 klux 0,00 min 10,8 C 5,0 C
01.04.2011 17:02 12,9 C 85 % 1021 hPa 0,0 l/m 24,5 km/h (4 Bft) SW45 235 0 min 15,4 klux 0,00 min 10,4 C 5,9 C
01.04.2011 17:17 12,9 C 86 % 1021 hPa 0,0 l/m 21,1 km/h (4 Bft) SW45 230 0 min 20,7 klux 0,00 min 10,6 C 6,7 C
01.04.2011 17:32 13,0 C 86 % 1021 hPa 0,0 l/m 22,1 km/h (4 Bft) W-SW22.5 250 0 min 19,2 klux 0,00 min 10,7 C 6,6 C
01.04.2011 17:47 13,0 C 86 % 1021 hPa 0,0 l/m 20,2 km/h (4 Bft) S-SW45 200 0 min 15,9 klux 0,00 min 10,7 C 7,1 C
01.04.2011 18:01 13,1 C 86 % 1021 hPa 0,0 l/m 16,6 km/h (3 Bft) SW22.5 230 0 min 17,1 klux 0,00 min 10,8 C 8,3 C
01.04.2011 18:16 12,8 C 86 % 1021 hPa 0,0 l/m 15,3 km/h (3 Bft) SW22.5 230 0 min 7,85 klux 0,00 min 10,5 C 8,4 C
01.04.2011 18:32 12,6 C 86 % 1021 hPa 0,0 l/m 13,6 km/h (3 Bft) SW45 230 0 min 8,08 klux 0,00 min 10,3 C 8,8 C
01.04.2011 18:47 12,4 C 86 % 1021 hPa 0,0 l/m 12,6 km/h (3 Bft) SW45 225 0 min 7,65 klux 0,00 min 10,1 C 9,0 C
01.04.2011 19:02 12,2 C 87 % 1021 hPa 0,0 l/m 15,1 km/h (3 Bft) S45 185 0 min 8,75 klux 0,00 min 10,1 C 7,8 C
01.04.2011 19:17 11,8 C 87 % 1021 hPa 0,0 l/m 12,9 km/h (3 Bft) S-SW45 210 0 min 7,84 klux 0,00 min 9,7 C 8,2 C
01.04.2011 19:31 11,4 C 87 % 1021 hPa 0,0 l/m 14,4 km/h (3 Bft) S-SW22.5 210 0 min 5,48 klux 0,00 min 9,3 C 7,1 C
01.04.2011 19:46 10,8 C 88 % 1021 hPa 0,0 l/m 13,4 km/h (3 Bft) SW22.5 225 0 min 2,94 klux 0,00 min 8,9 C 6,8 C
01.04.2011 20:02 10,4 C 89 % 1021 hPa 0,0 l/m 13,0 km/h (3 Bft) SW22.5 225 0 min 1,30 klux 0,00 min 8,7 C 6,5 C
01.04.2011 20:17 10,0 C 90 % 1021 hPa 0,0 l/m 8,1 km/h (2 Bft) S-SW22.5 205 0 min 295 lux 0,00 min 8,4 C 8,8 C
01.04.2011 20:32 9,7 C 91 % 1021 hPa 0,0 l/m 9,0 km/h (2 Bft) S-SW22.5 205 0 min 65 lux 0,00 min 8,3 C 7,9 C
01.04.2011 20:47 9,5 C 91 % 1021 hPa 0,0 l/m 7,8 km/h (2 Bft) S-SW22.5 205 0 min 9 lux 0,00 min 8,1 C 8,5 C
01.04.2011 21:02 9,3 C 92 % 1021 hPa 0,0 l/m 10,5 km/h (2 Bft) SW22.5 225 0 min 0 lux 0,00 min 8,1 C 6,5 C
01.04.2011 21:16 9,2 C 93 % 1021 hPa 0,0 l/m 9,4 km/h (2 Bft) S-SW22.5 210 0 min 0 lux 0,00 min 8,1 C 7,1 C
01.04.2011 21:31 9,2 C 93 % 1021 hPa 0,0 l/m 11,0 km/h (2 Bft) SW22.5 225 0 min 0 lux 0,00 min 8,1 C 6,1 C
01.04.2011 21:47 9,1 C 94 % 1021 hPa 0,0 l/m 9,4 km/h (2 Bft) S-SW22.5 205 0 min 0 lux 0,00 min 8,2 C 7,0 C
01.04.2011 22:02 8,8 C 94 % 1021 hPa 0,0 l/m 0,0 km/h (0 Bft) SW 220 0 min 0 lux 0,00 min 7,9 C 8,8 C
01.04.2011 22:17 8,5 C 94 % 1021 hPa 0,0 l/m 5,0 km/h (1 Bft) SW 215 0 min 0 lux 0,00 min 7,6 C 8,5 C
01.04.2011 22:32 8,1 C 93 % 1021 hPa 0,0 l/m 0,0 km/h (0 Bft) SW 215 0 min 0 lux 0,00 min 7,0 C 8,1 C
01.04.2011 22:47 7,8 C 93 % 1021 hPa 0,0 l/m 5,6 km/h (1 Bft) SW 225 0 min 0 lux 0,00 min 6,7 C 7,8 C
01.04.2011 23:01 7,6 C 94 % 1021 hPa 0,0 l/m 7,9 km/h (2 Bft) SW 220 0 min 0 lux 0,00 min 6,7 C 6,4 C
01.04.2011 23:16 7,4 C 95 % 1021 hPa 0,0 l/m 7,5 km/h (2 Bft) W-SW 245 0 min 0 lux 0,00 min 6,7 C 6,5 C
01.04.2011 23:32 7,6 C 95 % 1021 hPa 0,0 l/m 6,8 km/h (2 Bft) SW 225 0 min 0 lux 0,00 min 6,9 C 7,3 C
01.04.2011 23:47 7,8 C 95 % 1021 hPa 0,0 l/m 6,8 km/h (2 Bft) SW22.5 215 0 min 0 lux 0,00 min 7,0 C 7,5 C
01.04.2011 23:56 8,0 C 96 % 1021 hPa 0,0 l/m 11,7 km/h (2 Bft) S-SW22.5 205 0 min 0 lux 0,00 min 7,4 C 4,4 C
_ Min-Zeit 23:16 14:46 00:01 - 22:02 - - - - - 23:16 02:17
Minimum _ 7,4 C 83 % 1018 hPa - 0,0 km/h (0 Bft) - - - - - 6,7 C -1,6 C
_ Max-Zeit 15:17 00:01 11:02 11:02 00:31 - - 00:01 13:32 11:02 13:47 18:47
Maximum _ 14,2 C 97 % 1022 hPa 0,3 l/m 43,4 km/h
W-SW (6 Bft)
- - 0 min 49,5 klux 15,00 min 12,1 C 9,0 C
Durchschnitt _ 10,7 C 92 % 1021 hPa #0,3 l/m 22,3 km/h (4 Bft) W-SW - #0 min. 8,82 klux #15 min. 9,4 C 4,1 C